Location: Guayaquil
(2.1667°S, 79.9000°W)
Time: 22:02:26
(UTC-05:00)

DNEPR OBJECT AB - Pass Details

Date: 23 March 2018
Orbit: 588 x 704 km, 97.6° (Epoch: 24 April)

Event Time Altitude Azimuth Distance (km) Brightness Sun altitude
Rises 19:04:24 0° 174° (S) 3,069 ? -9.6°
Reaches altitude 10° 19:06:42 10° 177° (S) 2,138 ? -10.2°
Maximum altitude 19:11:21 66° 258° (WSW) 737 ? -11.4°
Drops below altitude 10° 19:15:50 10° 340° (NNW) 2,064 ? -12.5°
Sets 19:18:01 0° 343° (NNW) 2,954 ? -13.0°
